GW3830 Weather Reports


time (UTC)temp
C
wind
direction
speed
KPH
gust
KPH
rain 1hr
cm
rain 24hr
cm
rain mn
cm
humidity
%
barometer
mb
20260504050410 8 245 0.0 0.0 0.00 0.00 0.00 43 1014.2
20260504045907 8 289 0.0 0.0 0.00 0.00 0.00 43 1014.1
20260504045402 8 254 0.0 0.0 0.00 0.00 0.00 42 1014.1
20260504044859 8 296 0.0 0.0 0.00 0.00 0.00 42 1014.2
20260504044356 8 241 0.0 0.0 0.00 0.00 0.00 42 1014.2
20260504043854 8 284 0.0 0.0 0.00 0.00 0.00 42 1014.3
20260504043350 8 272 0.0 0.0 0.00 0.00 0.00 42 1014.1
20260504042848 8 253 0.0 0.0 0.00 0.00 0.00 42 1014.1
20260504042344 8 271 0.0 0.0 0.00 0.00 0.00 43 1014.1
20260504041840 8 272 0.0 0.0 0.00 0.00 0.00 42 1014.1
20260504041337 8 281 0.0 0.0 0.00 0.00 0.00 41 1013.8
20260504040833 8 293 0.0 0.0 0.00 0.00 0.00 41 1014.0
20260504040331 8 293 0.0 0.0 0.00 0.00 0.00 41 1014.0
20260504035826 8 283 0.0 0.0 0.00 0.00 0.00 41 1014.2
20260504035324 8 295 0.0 0.0 0.00 0.00 0.00 41 1014.0
20260504034821 8 292 0.0 0.0 0.00 0.00 0.00 41 1014.0
20260504034319 8 295 0.0 0.0 0.00 0.00 0.00 40 1014.0
20260504033815 9 291 0.0 0.0 0.00 0.00 0.00 40 1013.9
20260504033314 9 298 0.0 0.0 0.00 0.00 0.00 40 1013.9
20260504032809 8 281 0.0 0.0 0.00 0.00 0.00 41 1013.9
20260504032307 8 287 0.0 0.0 0.00 0.00 0.00 41 1013.8
20260504031804 9 304 0.0 0.0 0.00 0.00 0.00 41 1013.7
20260504031301 9 284 0.0 0.0 0.00 0.00 0.00 40 1013.7
20260504030757 9 287 0.0 0.0 0.00 0.00 0.00 40 1013.7
20260504030254 9 280 0.0 0.0 0.00 0.00 0.00 40 1013.9
20260504025750 8 266 0.0 0.0 0.00 0.00 0.00 40 1013.8
20260504025248 9 277 0.0 0.0 0.00 0.00 0.00 40 1013.6
20260504024744 9 276 0.0 0.0 0.00 0.00 0.00 40 1013.9
20260504024241 8 276 0.0 0.0 0.00 0.00 0.00 41 1013.9
20260504023738 8 319 0.0 0.0 0.00 0.00 0.00 41 1013.8
20260504023234 8 278 0.0 0.0 0.00 0.00 0.00 41 1014.0
20260504022730 8 303 0.0 0.0 0.00 0.00 0.00 41 1013.8
20260504022226 8 315 0.0 0.0 0.00 0.00 0.00 42 1014.1
20260504021724 8 342 0.0 0.0 0.00 0.00 0.00 41 1014.1
20260504021221 8 307 0.0 0.0 0.00 0.00 0.00 43 1013.8
20260504020717 8 321 0.0 0.0 0.00 0.00 0.00 43 1013.9
20260504020214 8 291 0.0 0.0 0.00 0.00 0.00 44 1014.1
20260504015711 8 307 0.0 0.0 0.00 0.00 0.00 45 1014.1
20260504015207 8 307 0.0 0.0 0.00 0.00 0.00 45 1013.9
20260504014703 8 15 0.0 0.0 0.00 0.00 0.00 44 1013.8
20260504014200 8 313 0.0 0.0 0.00 0.00 0.00 43 1013.7
20260504013657 8 346 0.0 0.0 0.00 0.00 0.00 43 1013.5
20260504013154 8 346 0.0 0.0 0.00 0.00 0.00 43 1013.6
20260504012651 8 323 0.0 0.0 0.00 0.00 0.00 44 1013.5
20260504012149 8 329 0.0 0.0 0.00 0.00 0.00 44 1013.6
20260504011646 8 345 0.0 0.0 0.00 0.00 0.00 44 1013.6
20260504011142 8 330 0.0 0.0 0.00 0.00 0.00 43 1013.6
20260504010638 8 74 0.0 0.0 0.00 0.00 0.00 42 1013.5
20260504010134 9 327 0.0 0.0 0.00 0.00 0.00 41 1013.6
20260504005631 9 8 0.0 0.0 0.00 0.00 0.00 42 1013.1
20260504005128 9 265 0.0 0.0 0.00 0.00 0.00 42 1013.3
20260504004626 8 355 0.0 0.0 0.00 0.00 0.00 41 1013.4
20260504004123 8 330 0.0 0.0 0.00 0.00 0.00 41 1013.3
20260504003619 9 353 0.0 0.0 0.00 0.00 0.00 41 1013.4
20260504003110 9 321 0.0 0.0 0.00 0.00 0.00 41 1013.4
20260504002607 9 17 0.0 0.0 0.00 0.00 0.00 40 1013.0
20260504002105 10 354 0.0 0.0 0.00 0.00 0.00 39 1013.0
20260504001602 10 1 0.0 0.0 0.00 0.00 0.00 39 1013.1
20260504001058 10 273 0.0 0.0 0.00 0.00 0.00 38 1013.1
20260504000555 10 21 0.0 0.0 0.00 0.00 0.00 38 1013.3
20260504000053 10 289 0.0 0.0 0.00 0.00 0.00 37 1013.1
20260503235551 10 290 0.0 0.0 0.00 0.00 0.00 37 1013.1
20260503235047 11 247 1.6 3.2 0.00 0.00 0.00 36 1013.1
20260503234545 11 292 0.0 0.0 0.00 0.00 0.00 36 1013.0
20260503234043 11 327 0.0 0.0 0.00 0.00 0.00 36 1013.3
20260503233539 11 347 0.0 1.6 0.00 0.00 0.00 35 1013.4
20260503233035 11 333 3.2 8.0 0.00 0.00 0.00 34 1013.4
20260503232533 11 345 0.0 3.2 0.00 0.00 0.00 34 1013.1
20260503232030 11 328 3.2 11.3 0.00 0.00 0.00 34 1013.1
20260503231528 11 285 6.4 12.9 0.00 0.00 0.00 33 1013.0
20260503231024 11 0 0.0 0.0 0.00 0.00 0.00 33 1013.4
20260503230521 11 300 3.2 8.0 0.00 0.00 0.00 33 1013.1
20260503230018 11 234 6.4 8.0 0.00 0.00 0.00 32 1013.4
20260503225515 11 292 3.2 4.8 0.00 0.00 0.00 33 1013.4
20260503225010 11 325 9.7 12.9 0.00 0.00 0.00 32 1013.6
20260503224508 12 287 11.3 20.9 0.00 0.00 0.00 34 1013.1
20260503224005 12 355 3.2 9.7 0.00 0.00 0.00 33 1013.5
20260503223503 12 76 0.0 0.0 0.00 0.00 0.00 35 1013.1
20260503222957 12 302 0.0 0.0 0.00 0.00 0.00 34 1013.5
20260503222456 11 273 3.2 14.5 0.00 0.00 0.00 35 1013.4
20260503221949 12 266 0.0 0.0 0.00 0.00 0.00 34 1013.5
20260503221447 12 276 0.0 0.0 0.00 0.00 0.00 32 1013.4
20260503220944 12 304 0.0 0.0 0.00 0.00 0.00 33 1013.4
20260503220440 11 301 12.9 17.7 0.00 0.00 0.00 34 1013.3
20260503215937 12 252 0.0 0.0 0.00 0.00 0.00 33 1013.4
20260503215434 12 242 0.0 0.0 0.00 0.00 0.00 32 1013.3
20260503214932 12 276 0.0 0.0 0.00 0.00 0.00 32 1013.4
20260503214429 11 291 0.0 0.0 0.00 0.00 0.00 36 1013.5
20260503213926 11 289 14.5 16.1 0.00 0.00 0.00 34 1013.4
20260503213425 12 319 12.9 14.5 0.00 0.00 0.00 33 1013.5
20260503212920 12 229 0.0 0.0 0.00 0.00 0.00 33 1013.6
20260503212418 12 238 0.0 0.0 0.00 0.00 0.00 33 1013.5
20260503211915 12 274 6.4 12.9 0.00 0.00 0.00 33 1013.5
20260503211412 12 297 8.0 12.9 0.00 0.00 0.00 33 1013.5
20260503210906 12 293 3.2 11.3 0.00 0.00 0.00 34 1013.6
20260503210404 12 298 4.8 17.7 0.00 0.00 0.00 33 1013.5
20260503205858 12 303 0.0 0.0 0.00 0.00 0.00 36 1013.6
20260503205355 12 263 0.0 0.0 0.00 0.00 0.00 33 1013.6
20260503204852 12 258 0.0 0.0 0.00 0.00 0.00 33 1013.6
20260503204349 12 299 9.7 14.5 0.00 0.00 0.00 33 1013.8
20260503203846 11 301 11.3 12.9 0.00 0.00 0.00 35 1013.5
20260503203344 12 281 14.5 16.1 0.00 0.00 0.00 32 1013.7
20260503202841 11 356 0.0 0.0 0.00 0.00 0.00 35 1013.9
20260503202339 11 233 14.5 17.7 0.00 0.00 0.00 33 1013.8
20260503201837 12 336 3.2 9.7 0.00 0.00 0.00 32 1014.0
20260503201333 12 298 17.7 20.9 0.00 0.00 0.00 31 1013.9
20260503200831 12 291 0.0 0.0 0.00 0.00 0.00 33 1013.9
20260503200327 12 268 0.0 0.0 0.00 0.00 0.00 32 1014.0
20260503195824 12 289 0.0 0.0 0.00 0.00 0.00 32 1014.3
20260503195320 12 322 4.8 9.7 0.00 0.00 0.00 33 1014.3
20260503194818 12 316 0.0 0.0 0.00 0.00 0.00 33 1014.5
20260503194314 11 326 0.0 0.0 0.00 0.00 0.00 35 1014.6
20260503193810 12 269 0.0 0.0 0.00 0.00 0.00 35 1014.5
20260503193306 11 224 0.0 0.0 0.00 0.00 0.00 34 1014.5
20260503192802 12 12 8.0 22.5 0.00 0.00 0.00 35 1014.5
20260503192257 12 319 3.2 8.0 0.00 0.00 0.00 35 1014.7
20260503191754 12 268 9.7 17.7 0.00 0.00 0.00 34 1014.9
20260503191251 11 312 3.2 8.0 0.00 0.00 0.00 36 1015.2
20260503190748 11 5 3.2 9.7 0.00 0.00 0.00 33 1015.0
20260503190245 11 281 0.0 0.0 0.00 0.00 0.00 33 1015.2
20260503185742 12 302 4.8 12.9 0.00 0.00 0.00 33 1015.0
20260503185238 11 0 0.0 0.0 0.00 0.00 0.00 33 1015.1
20260503184732 11 313 0.0 0.0 0.00 0.00 0.00 33 1015.0
20260503184229 11 337 0.0 0.0 0.00 0.00 0.00 35 1015.1
20260503183725 11 350 0.0 3.2 0.00 0.00 0.00 33 1015.3
20260503183223 10 8 0.0 0.0 0.00 0.00 0.00 34 1015.4
20260503182721 11 0 11.3 20.9 0.00 0.00 0.00 31 1015.3
20260503182219 11 25 3.2 11.3 0.00 0.00 0.00 34 1015.3
20260503181715 10 273 0.0 0.0 0.00 0.00 0.00 36 1015.3
20260503181213 10 224 0.0 0.0 0.00 0.00 0.00 37 1015.5
20260503180709 10 261 0.0 0.0 0.00 0.00 0.00 36 1015.2
20260503180208 10 296 6.4 14.5 0.00 0.00 0.00 37 1015.5
20260503175704 9 40 0.0 0.0 0.00 0.00 0.00 38 1015.5
20260503175202 10 11 0.0 0.0 0.00 0.00 0.00 38 1015.9
20260503174657 10 327 0.0 0.0 0.00 0.00 0.00 38 1015.9
20260503174155 9 274 0.0 0.0 0.00 0.00 0.00 39 1015.8
20260503173650 8 89 0.0 0.0 0.00 0.00 0.00 38 1015.8
20260503173146 10 1 0.0 0.0 0.00 0.00 0.00 36 1016.0
20260503172644 10 27 0.0 0.0 0.00 0.00 0.00 38 1016.2
20260503172141 10 2 9.7 12.9 0.00 0.00 0.00 36 1015.8
20260503171637 10 11 1.6 4.8 0.00 0.00 0.00 38 1015.9
20260503171135 9 338 0.0 0.0 0.00 0.00 0.00 40 1016.1
20260503170632 8 11 0.0 0.0 0.00 0.00 0.00 40 1016.2
20260503170128 9 308 0.0 3.2 0.00 0.00 0.00 36 1016.0
20260503150520 6 291 14.5 17.7 0.00 0.00 0.00 43 1016.6
20260503131413 3 5 1.6 3.2 0.00 0.00 0.00 57 1016.4
20260503130910 3 300 3.2 9.7 0.00 0.00 0.00 58 1016.3
20260503130407 3 87 0.0 0.0 0.00 0.00 0.00 62 1016.3
20260503110811 0 274 0.0 0.0 0.00 0.00 0.00 88 1014.8
20260503110308 0 318 0.0 0.0 0.00 0.00 0.00 88 1014.3
20260503100234 -1 353 0.0 0.0 0.00 0.00 0.00 89 1013.6
20260503090159 0 346 0.0 1.6 0.00 0.00 0.00 87 1013.5
20260503081630 0 54 0.0 1.6 0.00 0.00 0.00 83 1013.1
20260503081126 0 307 0.0 0.0 0.00 0.00 0.00 83 1013.1
20260503080622 0 326 0.0 0.0 0.00 0.00 0.00 83 1012.9
20260503080119 0 359 0.0 0.0 0.00 0.00 0.00 82 1013.0
20260503072556 1 32 0.0 0.0 0.00 0.00 0.00 78 1013.1